Virginia Beach, VA

10:24 AM EST on December 10, 2016 (GMT -0500)
Oceana Naval Air Station

Weather History for KNTU - July, 2014

Change the Weather History Date:

Tuesday, July 29, 2014

  Actual Average Record
Temperature  
Mean Temperature 74 °F -  
Max Temperature 79 °F 83 °F 98 °F (2002)
Min Temperature 66 °F 68 °F 66 °F (1997)
Cooling Degree Days 8    
Growing Degree Days 24 (Base 50)    
Moisture  
Dew Point 61 °F    
Average Humidity 66    
Maximum Humidity 76    
Minimum Humidity 48    
Precipitation  
Precipitation 0.00 in - - ()
Sea Level Pressure  
Sea Level Pressure 29.92 in    
Wind  
Wind Speed 10 mph (North)    
Max Wind Speed 17 mph    
Max Gust Speed 22 mph    
Visibility 10 miles    
Events      
Averages and records for this station are not official NWS values.
T = Trace of Precipitation, MM = Missing Value Source: NWS Daily Summary

Daily Weather History Graph

Daily Weather History Graph

Search for Another Location

Airport or City:

Trip Planner

Search our weather history database for the weather conditions in past years. The results will help you decide how hot, cold, wet, or windy it might be!

Date:

Astronomy

Jul. 29, 2014 Rise Set
Actual Time 6:07 AM EDT 8:13 PM EDT
Civil Twilight 5:38 AM EDT 8:42 PM EDT
Nautical Twilight 5:03 AM EDT 9:17 PM EDT
Astronomical Twilight 4:24 AM EDT 9:55 PM EDT
Moon 8:36 AM EDT (7/29) 9:30 PM EDT (7/29)
Length of Visible Light 15h 03m
Length of Day
14h 06m
Waxing Crescent, 7% of the Moon is Illuminated
Jul 29
Waxing Crescent
Aug 3
First Quarter
Aug 10
Full
Aug 17
Last Quarter
Aug 25
New

Hourly Weather History & Observations

Time (EDT) Temp. Dew Point Humidity Pressure Visibility Wind Dir Wind Speed Gust Speed Precip Events Conditions
12:56 AM 73.9 °F 59.0 °F 59% 29.82 in 10.0 mi NNW 11.5 mph - N/A   Clear
1:56 AM 73.9 °F 59.0 °F 59% 29.83 in 10.0 mi NNW 17.3 mph 21.9 mph N/A   Clear
2:56 AM 72.0 °F 61.0 °F 68% 29.83 in 10.0 mi NNW 10.4 mph - N/A   Partly Cloudy
3:56 AM 71.1 °F 61.0 °F 70% 29.84 in 10.0 mi North 9.2 mph - N/A   Partly Cloudy
4:56 AM 71.1 °F 62.1 °F 73% 29.86 in 10.0 mi NNW 6.9 mph - N/A   Scattered Clouds
5:56 AM 70.0 °F 62.1 °F 76% 29.88 in 10.0 mi NNW 6.9 mph - N/A   Scattered Clouds
6:04 AM 70.0 °F 62.1 °F 76% 29.87 in 10.0 mi NNW 5.8 mph - N/A   Mostly Cloudy
6:47 AM 70.0 °F 62.1 °F 76% 29.88 in 10.0 mi NNW 6.9 mph - N/A   Scattered Clouds
6:56 AM 70.0 °F 62.1 °F 76% 29.90 in 10.0 mi NNW 6.9 mph - N/A   Scattered Clouds
7:56 AM 72.0 °F 63.0 °F 73% 29.90 in 10.0 mi NNW 10.4 mph - N/A   Scattered Clouds
8:56 AM 73.9 °F 63.0 °F 68% 29.91 in 10.0 mi NNW 13.8 mph - N/A   Scattered Clouds
9:56 AM 75.0 °F 63.0 °F 66% 29.91 in 10.0 mi NNW 17.3 mph - N/A   Scattered Clouds
10:31 AM 73.0 °F 63.0 °F 71% 29.91 in 10.0 mi NNW 15.0 mph - N/A   Mostly Cloudy
10:56 AM 73.0 °F 62.1 °F 68% 29.93 in 10.0 mi NNW 11.5 mph - N/A   Mostly Cloudy
11:51 AM 75.2 °F 64.4 °F 69% 29.92 in 10.0 mi North 11.5 mph - N/A   Mostly Cloudy
11:56 AM 75.0 °F 63.0 °F 66% 29.93 in 10.0 mi North 10.4 mph - N/A   Mostly Cloudy
12:56 PM 75.9 °F 62.1 °F 62% 29.94 in 10.0 mi North 10.4 mph - N/A   Mostly Cloudy
1:56 PM 78.1 °F 62.1 °F 58% 29.94 in 10.0 mi North 10.4 mph - N/A   Scattered Clouds
2:56 PM 75.9 °F 60.1 °F 58% 29.94 in 10.0 mi NNE 6.9 mph - N/A   Scattered Clouds
3:56 PM 79.0 °F 60.1 °F 52% 29.93 in 10.0 mi North 9.2 mph - N/A   Scattered Clouds
4:56 PM 78.1 °F 59.0 °F 52% 29.94 in 10.0 mi North 8.1 mph - N/A   Scattered Clouds
5:56 PM 77.0 °F 55.9 °F 48% 29.95 in 10.0 mi North 8.1 mph - N/A   Scattered Clouds
6:56 PM 75.9 °F 55.0 °F 48% 29.96 in 10.0 mi NE 5.8 mph - N/A   Scattered Clouds
7:56 PM 73.0 °F 55.9 °F 55% 29.96 in 10.0 mi East 3.5 mph - N/A   Partly Cloudy
8:56 PM 69.1 °F 60.1 °F 73% 29.97 in 10.0 mi Calm Calm - N/A   Partly Cloudy
9:56 PM 69.1 °F 60.1 °F 73% 30.00 in 10.0 mi East 4.6 mph - N/A   Clear
10:56 PM 68.0 °F 59.0 °F 73% 30.01 in 10.0 mi Calm Calm - N/A   Partly Cloudy
11:56 PM 66.9 °F 57.0 °F 70% 30.01 in 10.0 mi Calm Calm - N/A   Partly Cloudy